This is the latest recevied weather packets stored in our database for station/object WX5KDM. If no packets are shown the sender has not sent any weather packets the latest 10 day(s).
| Time | Temp. | Humidity | Pressure | Rain* | Wind** | Luminosity | Snow |
|---|---|---|---|---|---|---|---|
| 1777783990 | 12.22° C | 71% | 1020.5 hPa | 0 mm | - | - | - |
| 1777783686 | 12.22° C | 70% | 1020.6 hPa | 0 mm | - | - | - |
| 1777783383 | 12.78° C | 70% | 1020.5 hPa | 0 mm | - | - | - |
| 1777783080 | 12.78° C | 69% | 1020.4 hPa | 0 mm | - | - | - |
| 1777782777 | 12.78° C | 69% | 1020.3 hPa | 0 mm | - | - | - |
| 1777782473 | 12.78° C | 69% | 1020.5 hPa | 0 mm | - | - | - |
| 1777782170 | 12.78° C | 68% | 1020.4 hPa | 0 mm | - | - | - |
| 1777781866 | 12.78° C | 68% | 1020.5 hPa | 0 mm | - | - | - |
| 1777781563 | 12.78° C | 68% | 1020.2 hPa | 0 mm | - | - | - |
| 1777781261 | 12.78° C | 67% | 1020.2 hPa | 0 mm | - | - | - |
| 1777780958 | 12.78° C | 67% | 1020.2 hPa | 0 mm | - | - | - |
| 1777780655 | 13.33° C | 66% | 1020 hPa | 0 mm | - | - | - |
| 1777780352 | 13.33° C | 65% | 1020 hPa | 0 mm | - | - | - |
| 1777780049 | 13.33° C | 65% | 1020.1 hPa | 0 mm | - | - | - |
| 1777779746 | 13.33° C | 63% | 1020.2 hPa | 0 mm | - | - | - |
| 1777779444 | 13.33° C | 62% | 1020.1 hPa | 0 mm | - | - | - |
| 1777779136 | 13.33° C | 61% | 1019.9 hPa | 0 mm | - | - | - |
| 1777778834 | 13.33° C | 60% | 1020.1 hPa | 0 mm | - | - | - |
| 1777778532 | 13.33° C | 60% | 1019.7 hPa | 0 mm | - | - | - |
| 1777778228 | 13.33° C | 61% | 1019.9 hPa | 0 mm | - | - | - |
| 1777777927 | 13.33° C | 60% | 1019.7 hPa | 0 mm | - | - | - |
| 1777777622 | 12.78° C | 62% | 1019.9 hPa | 0 mm | - | - | - |
| 1777777319 | 12.22° C | 66% | 1019.5 hPa | 0 mm | - | - | - |
| 1777777016 | 12.22° C | 68% | 1019.4 hPa | 0 mm | - | - | - |
| 1777776714 | 11.67° C | 68% | 1019.4 hPa | 0 mm | - | - | - |
* Rain latest hour (hover to see other rain measurements)
** Current wind speed in m/s (hover to see current wind gust speed)